カタログに戻る

STARLINK-34893

運用中通信VLEO
NORAD 65752·PAYLOAD·🇺🇸 United States

打ち上げ Sep 25, 2025 から Cape Canaveral Space Force Station

Loading…

次のパス (今後24時間)

TLE

最新Source: CelesTrak SupGP

元期: Sep 14, 2026, 22:30 UTC

1 65752C 25216U   26257.93798611 -.00045225  00000+0 -13357-2 0  2574
2 65752  53.1568 171.8348 0001193  79.0408  36.6292 15.34424829    10

AllMySatでSTARLINK-34893をリアルタイム追跡

Download on the App Store